Regional Weather Roundup
Issued by NWS

Home | Current Version | Previous Version | Graphics & Text | Print | Product List | Glossary On
Versions: 1 2 3 4 5 6 7 8 9 10 11 12 13 14 15 16 17 18 19 20 21 22 23 24 25 26 27 28 29 30 31 32 33 34 35 36 37 38 39 40 41 42 43 44 45 46 47 48 49 50
000
ASUS43 KLSX 012359
RWRMO

WEATHER SUMMARY FOR MISSOURI
NATIONAL WEATHER SERVICE SPRINGFIELD MO
700 PM CDT FRI AUG 01 2014

NOTE: "FAIR" INDICATES FEW OR NO CLOUDS BELOW 12,000 FEET WITH NO
       SIGNIFICANT WEATHER AND/OR OBSTRUCTIONS TO VISIBILITY.
       CURRENT SKY AND/OR WEATHER CONDITIONS ARE NOT AVAILABLE FOR
       CHILLICOTHE AND FARMINGTON.

MOZ001>031-035>038-043-044-053-054-020100-
...NORTHERN AND WESTERN MISSOURI...

CITY           SKY/WX    TMP DP  RH WIND       PRES   REMARKS
KANSAS CTY INT SUNNY     82  61  48 E9        30.04F
6HR MIN TEMP:  80; 6HR MAX TEMP:  85;

KANSAS C DTWN  SUNNY     83  62  49 NE12      30.03S
6HR MIN TEMP:  82; 6HR MAX TEMP:  87;

LEE`S SUMMIT   SUNNY     82  61  48 E6        30.05F
6HR MIN TEMP:  80; 6HR MAX TEMP:  84;

ST JOSEPH      SUNNY     82  61  48 E7        30.04F
6HR MIN TEMP:  79; 6HR MAX TEMP:  85;

KIRKSVILLE     SUNNY     82  60  47 CALM      30.07S
6HR MIN TEMP:  79; 6HR MAX TEMP:  85;


$$
MOZ066>068-077>081-088>096-101>105-020100-
...SOUTHWEST MISSOURI...

CITY           SKY/WX    TMP DP  RH WIND       PRES   REMARKS
SPRINGFIELD    MOSUNNY   80  62  54 NE3       30.05S
6HR MIN TEMP:  76; 6HR MAX TEMP:  85;

JOPLIN         SUNNY     82  61  48 S7        30.04F
6HR MIN TEMP:  78; 6HR MAX TEMP:  85;


$$
MOZ032>034-039>042-045>050-055>058-069>072-020100-
...CENTRAL MISSOURI...

CITY           SKY/WX    TMP DP  RH WIND       PRES   REMARKS
COLUMBIA       PTSUNNY   80  61  52 E12       30.06F
6HR MIN TEMP:  71; 6HR MAX TEMP:  84; 6HR PCP:  0.01;

JEFFERSON CITY MOSUNNY   79  62  56 E5        30.04F
6HR MIN TEMP:  77; 6HR MAX TEMP:  83; 6HR PCP: TRACE;

ROLLA          PTSUNNY   78  59  51 NE10      30.06S
6HR MIN TEMP:  78; 6HR MAX TEMP:  85;

SEDALIA        CLOUDY    81  61  50 NE8       30.06S
6HR MIN TEMP:  75; 6HR MAX TEMP:  84;

OSAGE BEACH      N/A     81  63  54 NE6       30.05R

$$
MOZ051-052-059>065-020100-
...EAST CENTRAL MISSOURI...

CITY           SKY/WX    TMP DP  RH WIND       PRES   REMARKS
ST LOUIS INTL  CLOUDY    76  66  71 NE7       30.07F
6HR MIN TEMP:  75; 6HR MAX TEMP:  86; 6HR PCP: TRACE;

SPIRIT OF STL  CLOUDY    70  67  90 CALM      30.06S
6HR MIN TEMP:  69; 6HR MAX TEMP:  87; 6HR PCP:  0.12;

ST CHARLES     CLOUDY    72  66  81 CALM      30.07S
6HR MIN TEMP:  72; 6HR MAX TEMP:  81;


$$
MOZ072>076-082>087-097>100-106>115-020100-
...SOUTH CENTRAL AND SOUTHEAST MISSOURI...

CITY           SKY/WX    TMP DP  RH WIND       PRES   REMARKS
CAPE GIRARDEAU MOSUNNY   78  70  76 S5        30.02F
6HR MIN TEMP:  78; 6HR MAX TEMP:  86;

FARMINGTON     PTSUNNY   73  64  73 SE7       30.09R
6HR MIN TEMP:  73; 6HR MAX TEMP:  88;

POPLAR BLUFF   SUNNY     81  63  54 S5        30.02S
6HR MIN TEMP:  80; 6HR MAX TEMP:  85;

WEST PLAINS    SUNNY     79  63  57 S5        30.07S
6HR MIN TEMP:  75; 6HR MAX TEMP:  83;


$$


USA.gov is the U.S. government's official web portal to all federal, state and local government web resources and services.